Wind_Speed
25 23 22 21 21 21 18 20 24 27 28 24 21 20 19 22 25 26 25 23 23 22 21 19 19 17 16 16 15 15 16 14 13 14 16 17 18 18 17 17 16 15 17 17 17 18 18 18 18
27 24 24 22 21 20 19 21 27 27 23 20 21 21 21 28 27 26 27 26 24 22 20 18 17 15 14 15 16 15 16 15 13 13 14 14 16 17 16 17 16 17 18 18 18 20 20 21 21
30 27 25 23 21 20 24 28 29 22 19 20 20 21 25 29 24 26 28 27 25 22 19 18 15 14 13 15 15 15 16 15 14 13 13 13 15 16 17 17 18 19 19 20 20 20 21 22 22
32 30 27 25 23 21 25 29 24 18 21 19 19 22 27 26 25 26 26 27 25 22 18 17 14 13 14 14 13 13 15 15 15 14 14 13 14 17 19 20 20 21 21 22 23 22 22 22 22
34 33 30 26 25 24 24 28 26 21 22 20 20 22 26 23 24 25 26 26 24 21 17 16 13 13 14 13 12 12 13 14 14 15 15 15 15 16 19 20 22 22 23 24 23 23 23 22 21
35 36 33 28 26 26 26 27 26 25 25 22 21 21 26 21 23 24 25 25 22 19 16 14 12 13 14 13 12 13 13 13 13 15 16 17 18 19 19 20 21 22 21 21 21 22 22 21 21
37 37 36 31 28 28 28 27 25 28 26 25 23 22 29 22 23 24 24 23 22 18 15 13 13 14 14 12 12 12 12 12 13 14 16 17 19 21 22 23 23 23 22 22 23 23 24 25 26
39 40 38 35 31 29 30 30 26 28 26 27 23 24 33 19 21 24 23 22 23 20 16 14 14 15 14 12 12 11 10 11 12 14 15 17 19 21 22 24 25 25 25 26 26 27 28 29 30
41 42 41 36 34 31 32 33 27 29 27 27 26 28 34 24 23 23 23 22 23 22 19 17 16 16 15 13 12 11 12 12 14 15 16 17 18 20 21 22 24 25 27 28 28 29 30 31 32
44 41 39 37 36 35 36 36 29 27 27 28 29 32 36 30 26 24 24 23 23 22 21 20 19 18 16 15 13 13 15 16 17 18 18 19 19 20 20 21 22 23 25 26 27 28 29 31 34
45 42 37 39 38 39 40 37 31 28 27 28 31 35 36 29 25 26 25 24 23 24 23 22 20 19 17 16 15 16 18 20 22 22 22 21 21 21 21 22 22 24 25 27 28 30 32 34 36
43 42 41 39 40 43 42 38 33 30 26 29 33 34 32 28 25 27 27 25 25 24 23 22 21 21 19 18 17 18 21 23 25 27 27 26 25 24 24 25 25 27 28 30 32 34 36 37 38
45 42 43 41 41 46 44 40 36 31 28 31 34 33 31 29 28 28 28 27 27 24 22 22 22 21 22 22 22 23 26 28 29 30 31 31 30 28 27 28 29 31 32 33 34 36 37 38 38
49 46 44 43 43 46 46 42 39 31 30 34 34 30 28 28 27 27 28 28 28 24 22 22 22 22 22 23 24 26 29 31 31 32 33 33 33 32 31 32 33 34 35 36 36 36 36 36 36
53 51 46 43 43 45 47 46 40 32 35 35 32 31 29 27 27 28 29 28 27 24 23 22 23 24 25 26 28 30 32 33 33 32 33 33 33 33 34 35 36 36 35 34 33 32 32 33 33
56 54 48 42 44 46 48 48 39 36 39 35 30 32 30 27 29 28 27 29 28 25 23 23 24 25 26 27 30 32 33 34 34 32 31 31 32 33 35 36 34 32 32 31 31 30 31 32 33
59 57 50 44 45 46 48 47 39 39 40 34 31 31 30 29 29 27 27 29 29 25 23 23 23 24 26 28 30 33 35 35 33 32 32 32 34 35 36 35 33 32 32 32 32 32 33 34 35
58 57 51 46 46 47 48 47 40 41 40 35 32 32 30 29 28 27 28 29 29 26 23 23 23 25 28 30 33 35 35 33 32 32 33 34 35 36 38 38 37 36 35 34 34 34 35 37 38
51 52 52 48 46 48 50 47 42 41 42 36 34 33 30 29 29 29 28 30 30 28 25 25 26 28 31 33 35 35 33 32 33 34 35 35 36 38 39 39 38 37 37 37 37 37 39 41 42
51 51 50 48 47 48 50 49 44 42 42 37 35 33 30 29 30 29 29 30 30 28 27 27 29 30 32 34 35 33 32 33 35 36 36 37 39 40 40 38 37 38 39 39 40 42 43 45 47
53 52 48 45 44 48 50 49 45 41 40 37 35 33 30 29 29 29 29 30 29 29 28 29 30 32 35 36 34 33 34 36 36 36 38 40 41 40 38 38 39 40 41 42 44 45 47 49 52
54 51 47 45 44 46 49 48 44 41 40 37 33 33 30 30 29 29 29 29 29 29 29 30 31 33 35 33 33 34 35 36 37 39 40 41 41 40 40 40 41 42 43 45 47 49 52 55 58
53 49 47 44 45 46 47 47 43 42 39 34 32 32 29 30 30 29 29 28 28 29 29 30 31 32 32 33 34 36 37 38 39 40 41 40 40 40 40 41 42 44 46 49 51 54 57 60 63
52 49 46 46 45 44 43 44 41 40 35 31 31 31 28 29 31 30 29 28 28 29 30 31 32 32 33 35 37 38 39 39 39 40 41 40 39 39 40 42 44 47 50 52 55 58 61 64 67
54 49 47 49 48 45 42 42 39 38 35 30 28 28 28 29 31 30 29 28 29 30 31 32 34 35 36 38 38 39 39 39 40 40 39 39 39 41 43 46 48 51 53 56 59 62 65 67 69
53 52 49 49 51 46 43 42 38 38 29 26 26 26 27 29 30 29 28 28 29 30 32 34 36 37 38 38 38 39 39 39 38 37 38 39 41 44 46 49 51 54 57 60 63 66 68 70 72
55 51 37 36 42 41 41 38 36 32 27 25 23 22 23 27 29 28 27 27 29 32 34 35 36 37 37 37 38 38 37 37 37 37 39 41 43 46 49 52 55 58 61 64 67 69 70 71 72
50 43 34 32 35 38 39 37 34 28 25 23 21 20 22 24 27 29 27 27 29 31 33 34 35 37 37 37 36 35 35 36 37 38 41 43 46 49 52 56 59 62 65 68 70 71 71 72 74
42 40 35 33 35 38 38 33 31 24 21 21 20 21 22 24 27 28 28 28 30 31 32 33 35 36 36 35 34 34 35 36 38 40 44 47 50 54 57 61 63 66 68 70 71 71 72 74 77
37 39 36 34 36 36 32 29 24 20 20 20 20 21 23 24 26 27 27 29 31 32 33 34 35 35 34 33 34 34 35 37 40 43 47 51 54 58 61 65 67 69 69 70 70 71 73 77 82
Wind_Direction
262 266 268 266 261 253 252 246 240 244 245 246 246 246 251 256 256 261 266 267 267 271 276 284 294 299 304 308 305 299 296 294 292 282 274 270 266 265 267 271 271 274 276 278 278 279 279 277 275
256 261 265 266 263 256 248 243 244 247 251 247 241 241 244 250 256 261 264 265 263 265 273 283 292 296 301 305 304 301 299 298 297 298 290 274 262 259 262 267 272 275 278 279 280 281 280 278 278
253 254 258 263 263 255 247 242 250 260 252 242 238 239 244 252 260 260 263 264 262 262 268 279 282 286 294 300 302 301 298 298 299 303 307 287 268 260 260 265 270 274 278 279 282 285 283 280 279
251 251 252 257 260 254 253 259 262 256 244 239 236 239 243 248 253 257 260 262 261 260 264 273 274 281 290 296 300 300 301 303 300 296 302 302 285 271 266 268 272 276 278 280 283 287 286 281 278
249 248 248 251 258 257 253 256 255 248 244 237 236 242 249 250 256 260 262 262 260 255 260 265 270 280 287 292 295 300 303 303 301 294 292 294 293 286 278 276 278 280 282 284 286 285 284 281 278
248 245 244 246 253 256 255 252 251 245 243 239 237 244 252 252 259 262 263 263 260 253 255 255 261 270 280 285 291 298 301 301 301 297 291 287 285 283 281 280 281 283 286 286 285 283 281 279 275
246 245 243 243 248 252 259 256 251 246 243 240 241 245 252 248 260 265 266 262 253 252 251 242 250 261 273 278 286 292 302 311 311 303 297 292 287 281 278 278 279 281 281 282 280 278 275 273 272
246 245 243 241 245 252 258 259 254 250 244 244 246 244 252 251 261 264 264 256 247 249 247 233 246 261 269 270 279 286 300 317 322 319 311 304 297 291 285 281 279 279 278 278 278 277 276 277 278
248 245 243 242 246 250 254 258 256 254 249 245 241 242 253 252 257 260 258 249 242 244 242 234 240 254 260 265 273 278 291 306 316 321 320 315 308 300 293 288 283 279 278 278 280 282 283 284 284
247 249 246 244 246 248 250 255 256 258 252 246 242 241 247 249 253 256 252 243 238 241 241 236 241 250 249 252 265 277 286 294 301 310 315 315 310 304 298 294 290 286 284 284 285 285 284 284 283
248 248 246 242 243 246 248 254 257 258 254 248 246 244 247 251 257 252 245 242 239 240 242 238 243 251 251 257 268 279 285 289 293 297 304 308 306 303 301 298 295 292 289 287 286 286 287 286 286
247 245 245 243 241 244 246 251 255 257 255 248 247 249 251 250 252 246 242 243 244 241 241 241 243 250 252 259 272 282 286 286 288 291 296 300 301 298 296 294 293 292 291 292 292 291 290 289 289
244 241 240 241 241 243 245 247 252 254 255 247 247 247 247 246 245 245 246 247 249 247 244 244 245 251 254 261 271 278 283 286 287 288 291 293 294 294 291 290 290 290 290 291 292 291 290 289 289
240 238 236 236 240 243 244 243 248 252 254 248 247 249 249 245 245 249 249 249 251 250 247 249 249 251 256 263 270 277 282 286 287 285 286 287 288 290 292 292 292 291 290 291 291 290 288 288 288
238 236 234 233 237 241 243 241 243 249 251 250 247 246 247 245 245 248 253 252 251 250 249 252 252 254 259 267 274 279 282 286 288 288 287 287 288 290 293 294 294 293 292 292 293 293 293 292 291
237 236 233 233 236 240 242 240 239 245 248 250 249 246 246 245 245 250 255 249 246 247 250 253 255 259 265 273 280 283 286 286 288 292 291 290 291 293 296 296 295 294 294 294 295 296 295 294 293
235 234 233 233 237 239 241 241 235 243 248 249 249 249 246 244 246 250 251 245 244 246 250 254 257 263 271 278 283 287 290 290 290 292 292 292 295 297 298 296 295 295 295 295 295 295 295 294 294
234 234 235 235 238 241 241 240 234 241 247 247 247 250 250 243 244 247 248 244 244 246 251 257 262 269 277 282 287 292 294 292 291 292 293 295 297 300 301 300 298 297 297 296 296 296 297 296 297
235 234 236 239 240 241 241 239 233 239 245 245 246 250 251 243 242 246 247 245 244 247 253 262 268 274 280 285 290 292 290 287 288 292 295 296 299 301 301 300 300 300 300 299 299 299 300 300 300
231 231 233 237 239 241 241 238 232 236 243 244 246 248 249 243 242 244 246 245 244 247 255 263 269 276 282 286 289 287 286 287 290 293 294 296 299 301 301 301 301 301 301 301 302 302 302 302 301
229 229 231 236 237 239 240 237 230 234 241 242 244 246 244 240 241 243 247 246 246 249 256 263 271 279 284 286 284 283 285 288 291 292 294 297 300 300 300 301 302 302 303 303 303 302 301 301 300
228 226 228 231 229 231 236 235 228 232 237 239 242 244 241 239 241 244 248 247 247 251 257 264 273 282 286 284 282 283 286 289 292 294 297 300 301 301 301 302 303 303 302 302 301 301 301 300 300
224 222 223 223 224 228 232 230 225 230 233 237 242 243 240 238 241 244 247 248 248 251 257 266 277 285 285 282 282 284 288 291 294 297 299 300 300 300 302 302 302 302 302 302 302 301 300 300 300
211 211 211 211 214 219 224 223 222 234 234 235 240 242 240 238 240 243 247 247 248 252 259 269 278 283 284 284 285 288 291 294 296 299 300 299 299 300 301 301 301 301 301 301 300 300 300 301 301
197 197 201 207 212 217 219 218 219 231 236 236 238 242 240 238 239 243 246 246 248 254 262 270 276 280 283 285 288 290 292 295 297 299 299 300 300 301 301 301 300 300 301 301 302 302 302 302 301
188 189 196 204 210 214 217 217 219 229 235 240 240 241 241 239 239 244 247 248 250 255 262 269 276 280 284 286 288 290 292 295 298 298 298 299 300 300 300 300 301 303 304 305 304 304 303 303 303
188 190 187 195 204 212 216 216 222 228 232 238 243 244 243 240 240 245 249 250 252 257 264 271 277 280 283 286 288 289 292 295 296 296 297 298 299 300 301 303 305 307 307 306 306 306 306 306 306
190 191 189 194 200 208 211 217 226 228 233 239 245 248 246 244 244 248 251 253 257 261 266 271 275 279 282 285 287 288 291 293 294 296 299 301 302 303 306 308 309 309 309 309 309 308 308 308 308
192 186 185 190 199 203 206 210 221 226 235 241 245 246 246 246 247 251 254 257 259 263 267 272 276 279 282 284 285 288 291 292 295 298 301 303 306 308 310 311 311 311 310 310 310 310 310 310 311
183 178 178 185 191 199 206 212 217 222 232 239 243 246 247 248 249 252 255 257 260 265 270 274 277 279 281 282 286 290 292 294 298 302 304 306 309 311 312 312 312 312 312 311 312 312 313 313 313
Height
5826 5827 5828 5830 5832 5834 5836 5836 5836 5836 5837 5840 5844 5846 5847 5847 5847 5849 5848 5848 5849 5849 5850 5850 5849 5849 5848 5847 5846 5846 5845 5845 5844 5844 5844 5844 5846 5847 5848 5849 5849 5849 5849 5849 5849 5849 5848 5848 5848
5821 5823 5825 5827 5828 5830 5832 5831 5831 5832 5836 5840 5841 5842 5843 5840 5842 5844 5844 5845 5846 5847 5847 5848 5848 5847 5846 5845 5845 5844 5844 5844 5843 5842 5842 5842 5843 5844 5845 5846 5846 5846 5846 5846 5846 5845 5845 5845 5844
5816 5819 5822 5823 5824 5826 5826 5826 5827 5832 5834 5836 5838 5839 5838 5836 5840 5841 5841 5842 5843 5844 5846 5846 5846 5845 5844 5844 5843 5843 5843 5842 5841 5840 5840 5839 5840 5841 5842 5843 5843 5843 5843 5843 5842 5842 5841 5841 5841
5811 5814 5817 5819 5820 5821 5822 5823 5827 5829 5830 5833 5835 5835 5833 5834 5835 5836 5837 5838 5840 5842 5844 5844 5844 5843 5843 5842 5841 5841 5841 5840 5839 5839 5838 5837 5837 5838 5839 5839 5840 5840 5840 5839 5839 5838 5837 5837 5836
5805 5808 5812 5814 5815 5817 5818 5819 5822 5826 5827 5829 5831 5831 5830 5832 5832 5833 5834 5835 5837 5839 5841 5841 5842 5842 5841 5840 5839 5838 5838 5837 5836 5836 5835 5835 5835 5835 5835 5836 5836 5836 5836 5835 5835 5834 5833 5832 5831
5799 5803 5806 5808 5810 5811 5813 5815 5819 5821 5823 5826 5827 5828 5826 5830 5829 5829 5830 5831 5833 5836 5838 5838 5839 5839 5838 5838 5837 5835 5835 5834 5833 5833 5833 5832 5832 5832 5832 5831 5831 5831 5831 5830 5830 5829 5828 5826 5825
5793 5796 5800 5803 5805 5807 5808 5810 5815 5816 5819 5822 5824 5825 5821 5826 5826 5826 5826 5827 5830 5832 5834 5835 5835 5835 5835 5835 5834 5833 5833 5831 5830 5830 5829 5828 5828 5827 5827 5826 5826 5825 5825 5824 5823 5823 5821 5820 5819
5785 5790 5793 5798 5800 5803 5803 5804 5809 5813 5816 5817 5821 5822 5816 5824 5823 5822 5822 5823 5826 5828 5830 5831 5832 5832 5832 5832 5832 5831 5830 5829 5828 5826 5825 5824 5823 5822 5821 5820 5820 5819 5818 5818 5817 5816 5816 5815 5815
5777 5782 5787 5793 5796 5798 5798 5799 5804 5808 5812 5813 5816 5817 5814 5818 5818 5818 5818 5819 5821 5824 5826 5827 5828 5829 5829 5829 5829 5828 5827 5826 5825 5824 5822 5820 5818 5817 5816 5815 5814 5813 5813 5812 5812 5811 5811 5810 5809
5770 5775 5783 5788 5790 5792 5792 5793 5799 5803 5807 5808 5809 5811 5809 5812 5813 5814 5815 5815 5817 5820 5822 5823 5824 5825 5825 5826 5826 5825 5824 5823 5822 5821 5819 5817 5815 5814 5812 5811 5810 5809 5808 5807 5806 5805 5804 5803 5802
5763 5769 5775 5779 5783 5785 5786 5789 5794 5798 5802 5803 5803 5804 5804 5808 5810 5811 5811 5811 5813 5816 5818 5819 5820 5820 5821 5822 5822 5822 5821 5820 5819 5817 5815 5814 5812 5810 5809 5807 5806 5805 5804 5802 5800 5799 5798 5796 5795
5755 5761 5766 5771 5775 5777 5779 5784 5788 5792 5797 5798 5797 5799 5802 5805 5806 5806 5807 5808 5809 5811 5814 5815 5816 5816 5817 5818 5818 5818 5817 5816 5815 5813 5811 5809 5808 5806 5804 5803 5801 5800 5798 5796 5794 5792 5791 5789 5787
5745 5751 5756 5763 5767 5769 5773 5778 5782 5786 5791 5791 5791 5794 5798 5800 5801 5802 5804 5805 5806 5808 5809 5811 5812 5812 5813 5814 5814 5813 5812 5811 5810 5808 5806 5804 5802 5801 5799 5797 5795 5794 5792 5790 5788 5785 5783 5781 5779
5736 5741 5746 5753 5759 5761 5765 5771 5775 5782 5784 5784 5786 5790 5793 5795 5796 5798 5799 5801 5802 5804 5806 5806 5807 5808 5809 5809 5809 5808 5807 5806 5804 5803 5801 5799 5797 5795 5794 5792 5789 5787 5784 5782 5780 5778 5776 5774 5772
5726 5730 5737 5744 5750 5754 5757 5763 5770 5777 5776 5778 5782 5785 5788 5789 5792 5793 5795 5796 5797 5800 5801 5802 5802 5803 5804 5805 5804 5803 5802 5801 5799 5797 5795 5793 5791 5789 5787 5785 5783 5780 5777 5774 5772 5770 5768 5766 5765
5715 5720 5728 5738 5742 5745 5751 5755 5767 5769 5768 5773 5777 5780 5783 5785 5786 5789 5790 5792 5793 5795 5796 5797 5798 5799 5800 5800 5799 5798 5797 5795 5793 5791 5789 5787 5785 5783 5781 5778 5775 5772 5769 5767 5765 5763 5761 5758 5757
5704 5711 5720 5729 5733 5737 5742 5748 5760 5761 5763 5769 5772 5773 5776 5780 5782 5785 5785 5786 5788 5790 5792 5793 5794 5794 5795 5794 5794 5793 5791 5789 5787 5785 5784 5782 5780 5777 5774 5771 5768 5765 5762 5760 5757 5755 5753 5751 5748
5697 5704 5711 5718 5725 5730 5734 5741 5753 5754 5757 5763 5766 5767 5771 5775 5778 5779 5780 5781 5783 5786 5788 5789 5789 5790 5790 5789 5788 5787 5785 5783 5781 5780 5778 5776 5773 5771 5768 5765 5761 5758 5755 5752 5749 5747 5744 5740 5738
5686 5693 5700 5709 5717 5722 5727 5734 5745 5748 5750 5756 5760 5762 5766 5770 5772 5773 5774 5776 5779 5782 5783 5784 5785 5785 5784 5784 5782 5781 5779 5777 5776 5773 5771 5769 5766 5763 5760 5757 5754 5751 5747 5744 5741 5738 5734 5730 5726
5671 5680 5691 5700 5708 5714 5719 5727 5737 5741 5744 5750 5754 5756 5759 5764 5766 5768 5769 5771 5774 5777 5778 5779 5780 5779 5779 5778 5777 5775 5773 5771 5770 5767 5764 5762 5759 5756 5752 5749 5745 5742 5739 5735 5732 5728 5724 5720 5715
5659 5671 5684 5694 5702 5706 5712 5719 5729 5735 5738 5743 5747 5749 5753 5758 5760 5763 5765 5767 5769 5772 5773 5774 5774 5774 5773 5772 5771 5769 5767 5765 5763 5760 5757 5754 5751 5748 5744 5741 5737 5733 5730 5726 5722 5718 5714 5709 5704
5648 5666 5678 5687 5695 5699 5705 5712 5723 5728 5730 5736 5741 5743 5748 5752 5754 5757 5759 5762 5764 5766 5768 5768 5768 5768 5767 5765 5764 5763 5761 5759 5756 5753 5750 5747 5743 5739 5735 5732 5728 5724 5721 5716 5712 5707 5701 5696 5691
5643 5660 5671 5681 5688 5693 5698 5706 5716 5718 5723 5730 5734 5737 5742 5746 5748 5751 5754 5757 5759 5761 5762 5763 5762 5761 5760 5759 5758 5756 5754 5751 5749 5745 5742 5739 5735 5731 5727 5723 5720 5715 5711 5706 5701 5695 5689 5683 5676
5634 5649 5662 5671 5678 5683 5690 5700 5711 5711 5718 5724 5727 5731 5736 5739 5742 5745 5748 5751 5753 5755 5756 5756 5756 5755 5754 5753 5751 5749 5747 5744 5741 5738 5734 5731 5727 5723 5719 5715 5711 5706 5701 5695 5689 5683 5676 5669 5661
5622 5638 5653 5661 5666 5673 5685 5694 5704 5704 5711 5718 5723 5726 5730 5733 5736 5739 5742 5745 5747 5749 5749 5749 5749 5749 5748 5746 5744 5742 5739 5736 5733 5730 5726 5722 5719 5715 5711 5706 5701 5695 5689 5683 5676 5669 5661 5653 5645
5617 5631 5647 5657 5662 5672 5681 5689 5698 5700 5708 5713 5717 5721 5724 5727 5730 5734 5737 5739 5741 5742 5742 5743 5742 5742 5740 5739 5737 5734 5731 5728 5725 5722 5719 5715 5711 5706 5701 5696 5689 5683 5676 5669 5662 5654 5646 5637 5628
5615 5625 5641 5653 5662 5669 5677 5687 5692 5698 5704 5709 5713 5716 5719 5722 5725 5728 5731 5733 5735 5735 5736 5736 5735 5734 5733 5731 5729 5727 5724 5721 5718 5715 5711 5707 5702 5696 5690 5684 5678 5670 5663 5655 5647 5638 5629 5620 5610
5617 5626 5637 5648 5656 5664 5675 5683 5689 5696 5701 5705 5709 5712 5714 5716 5719 5722 5725 5727 5728 5728 5729 5729 5728 5727 5726 5724 5721 5719 5716 5713 5710 5706 5702 5697 5691 5685 5679 5672 5664 5656 5648 5639 5630 5621 5612 5602 5593
5617 5626 5636 5646 5655 5663 5671 5680 5684 5693 5698 5701 5704 5706 5708 5711 5714 5716 5719 5720 5721 5721 5722 5722 5721 5720 5718 5716 5714 5711 5708 5705 5701 5697 5691 5686 5680 5673 5666 5658 5649 5641 5632 5623 5614 5604 5595 5586 5576
5618 5627 5637 5646 5654 5661 5668 5678 5683 5690 5693 5696 5698 5701 5703 5705 5708 5711 5712 5713 5714 5714 5715 5714 5713 5712 5710 5708 5706 5703 5699 5695 5691 5686 5680 5674 5668 5660 5652 5643 5634 5625 5616 5607 5598 5589 5580 5569 5557